Trieste, Italy

2:36 PM CET on February 10, 2016 (GMT +0100)
Trieste

Weather History for LIVT - November, 2012

Change the Weather History Date:

Saturday, November 3, 2012

  Actual Average Record
Temperature  
Mean Temperature 62 °F -  
Max Temperature 69 °F 53 °F 71 °F (2004)
Min Temperature 54 °F 45 °F 42 °F (2006)
Degree Days  
Heating Degree Days 4    
Growing Degree Days 12 (Base 50)    
Moisture  
Dew Point 51 °F    
Average Humidity 71    
Maximum Humidity 88    
Minimum Humidity 48    
Precipitation  
Precipitation 0.00 in 0.15 in - ()
Sea Level Pressure  
Sea Level Pressure 29.93 in    
Wind  
Wind Speed 2 mph ()    
Max Wind Speed 6 mph    
Max Gust Speed -    
Visibility 6.8 miles    
Events      
Averages and records for this station are not official NWS values.
T = Trace of Precipitation, MM = Missing Value Source: Averaged Metar Reports

Daily Weather History Graph

Daily Weather History Graph

Search for Another Location

Airport or City:

Trip Planner

Search our weather history database for the weather conditions in past years. The results will help you decide how hot, cold, wet, or windy it might be!

Date:

Astronomy

Nov. 03, 2012 Rise Set
Actual Time 6:47 AM CET 4:48 PM CET
Civil Twilight 6:16 AM CET 5:19 PM CET
Nautical Twilight 5:41 AM CET 5:54 PM CET
Astronomical Twilight 5:06 AM CET 6:29 PM CET
Moon 8:08 PM CET (11/3) 10:45 AM CET (11/3)
Length of Visible Light 11h 03m
Length of Day
10h 00m
Waning Gibbous, 82% of the Moon is Illuminated
Nov 3
Waning Gibbous
Nov 7
Last Quarter
Nov 13
New
Nov 20
First Quarter
Nov 28
Full

Hourly Weather History & Observations

Time (CET) Temp. Dew Point Humidity Pressure Visibility Wind Dir Wind Speed Gust Speed Precip Events Conditions
12:55 AM 57.2 °F 46.4 °F 67% 29.89 in - East 4.6 mph - N/A   Clear
1:55 AM 57.2 °F 46.4 °F 67% 29.89 in - East 4.6 mph - N/A   Clear
2:55 AM 57.2 °F 48.2 °F 72% 29.89 in - East 5.8 mph - N/A   Clear
3:55 AM 57.2 °F 46.4 °F 67% 29.92 in - East 4.6 mph - N/A   Clear
4:55 AM 57.2 °F 48.2 °F 72% 29.92 in - East 2.3 mph - N/A   Clear
5:55 AM 57.2 °F 46.4 °F 67% 29.92 in - East 3.5 mph - N/A   Clear
6:55 AM 55.4 °F 46.4 °F 72% 29.92 in - East 2.3 mph - N/A   Clear
7:00 AM 56 °F 47 °F 63% 29.93 in 12 mi East 2.3 mph - -   Scattered Clouds
7:55 AM 57.2 °F 48.2 °F 72% 29.95 in - East 2.3 mph - N/A   Clear
8:55 AM 60.8 °F 51.8 °F 72% 29.95 in 6.2 mi East 2.3 mph - N/A   Scattered Clouds
9:55 AM 62.6 °F 51.8 °F 68% 29.95 in 6.2 mi SE 2.3 mph - N/A   Partly Cloudy
10:55 AM 66.2 °F 51.8 °F 60% 29.95 in 6.2 mi South 2.3 mph - N/A   Partly Cloudy
11:55 AM 68.0 °F 51.8 °F 56% 29.95 in 6.2 mi Calm Calm - N/A   Partly Cloudy
12:55 PM 66.2 °F 51.8 °F 60% 29.95 in 6.2 mi West 1.2 mph - N/A   Mostly Cloudy
1:00 PM 66 °F 51 °F 48% 29.97 in 12 mi West 1.2 mph - -   Mostly Cloudy
1:55 PM 64.4 °F 51.8 °F 64% 29.95 in 6.2 mi NNE 3.5 mph - N/A   Mostly Cloudy
2:55 PM 62.6 °F 53.6 °F 72% 29.95 in 6.2 mi Calm Calm - N/A   Mostly Cloudy
3:55 PM 62.6 °F 53.6 °F 72% 29.95 in 6.2 mi Calm Calm - N/A   Mostly Cloudy
4:55 PM 59.0 °F 51.8 °F 77% 29.92 in 6.2 mi ENE 1.2 mph - N/A   Mostly Cloudy
5:55 PM 59.0 °F 51.8 °F 77% 29.92 in 6.2 mi Calm Calm - N/A   Mostly Cloudy
6:55 PM 57.2 °F 53.6 °F 88% 29.92 in 6.2 mi Calm Calm - N/A   Mostly Cloudy
7:00 PM 58 °F 53 °F 78% 29.94 in 6 mi Calm Calm - -   Overcast
7:55 PM 60.8 °F 53.6 °F 77% 29.95 in 6.2 mi East 2.3 mph - N/A   Scattered Clouds
8:55 PM 60.8 °F 53.6 °F 77% 29.95 in 6.2 mi Calm Calm - N/A   Scattered Clouds
9:55 PM 59.0 °F 53.6 °F 82% 29.92 in - Calm Calm - N/A   Clear
10:55 PM 59.0 °F 51.8 °F 77% 29.92 in 6.2 mi East 2.3 mph - N/A   Partly Cloudy
11:55 PM 59.0 °F 53.6 °F 82% 29.92 in 6.2 mi East 3.5 mph - N/A   Scattered Clouds